K0OHU-1 Weather Reports


Display with metric or nautical units.
time (UTC)temp
F
wind
direction
speed
MPH
gust
MPH
rain 1hr
in
rain 24hr
in
rain mn
in
humidity
%
barometer
mb
20140922060308 57 140 0.0 0.0 0.00 0.00 0.00 92 1024.3
20140922054812 58 140 0.0 0.0 0.00 0.00 0.09 91 1024.1
20140922053303 58 150 0.0 1.0 0.00 0.00 0.09 91 1024.5
20140922051803 58 150 0.0 0.0 0.00 0.00 0.09 91 1025.3
20140922050302 58 150 0.0 0.0 0.00 0.00 0.09 90 1025.4
20140922044806 59 151 0.0 0.0 0.00 0.00 0.09 90 1025.6
20140922043254 59 150 0.0 0.0 0.00 0.00 0.09 90 1025.8
20140922041806 59 151 0.0 0.0 0.00 0.00 0.09 90 1025.7
20140922040314 60 151 0.0 0.0 0.00 0.00 0.08 90 1026.8
20140922034811 60 151 0.0 0.0 0.00 0.00 0.07 88 1025.8
20140922033304 61 151 0.0 0.0 0.00 0.00 0.05 86 1025.7
20140922031809 62 151 0.0 1.0 0.00 0.00 0.02 85 1025.9
20140922030258 62 151 0.0 0.0 0.00 0.00 0.01 85 1026.1
20140922024807 63 151 0.0 0.0 0.00 0.00 0.01 83 1026.4
20140922023255 64 156 0.0 2.0 0.00 0.00 0.01 81 1025.8
20140922021801 64 205 0.0 0.0 0.00 0.00 0.00 75 1025.4
20140922020314 65 205 0.0 0.0 0.00 0.00 0.00 71 1025.5
20140922014812 65 205 0.0 0.0 0.00 0.00 0.00 67 1025.3
20140922013257 65 205 0.0 0.0 0.00 0.00 0.00 67 1025.0
20140922011806 65 205 0.0 0.0 0.00 0.00 0.00 65 1024.6
20140922010315 66 205 0.0 0.0 0.00 0.00 0.00 65 1024.4
20140922004801 66 205 0.0 0.0 0.00 0.00 0.00 64 1024.6
20140922003312 66 205 0.0 1.0 0.00 0.00 0.00 64 1024.5
20140922001816 67 205 0.0 0.0 0.00 0.00 0.00 64 1024.3
20140922000305 68 205 0.0 0.0 0.00 0.00 0.00 62 1023.8
20140921234815 69 205 0.0 0.0 0.00 0.00 0.00 58 1024.2
20140921233304 69 205 0.0 0.0 0.00 0.00 0.00 55 1023.6
20140921231809 69 205 0.0 0.0 0.00 0.00 0.00 56 1023.5
20140921230302 69 205 0.0 0.0 0.00 0.00 0.00 55 1023.5
20140921224806 69 205 0.0 0.0 0.00 0.00 0.00 55 1023.6
20140921223259 69 205 0.0 0.0 0.00 0.00 0.00 55 1023.6
20140921221804 69 205 0.0 2.0 0.00 0.00 0.00 54 1023.6
20140921220312 69 269 0.0 2.0 0.00 0.00 0.00 55 1023.6
20140921214802 69 269 0.0 2.0 0.00 0.00 0.00 55 1024.2
20140921213310 69 269 0.0 1.0 0.00 0.00 0.00 54 1024.5
20140921211815 69 269 0.0 2.0 0.00 0.00 0.00 54 1024.6
20140921210307 69 268 0.0 1.0 0.00 0.00 0.00 54 1024.4
20140921204812 70 269 0.0 2.0 0.00 0.00 0.00 52 1024.5
20140921203300 71 268 0.0 0.0 0.00 0.00 0.00 52 1024.7
20140921201816 71 269 0.0 2.0 0.00 0.00 0.00 49 1024.8
20140921200258 72 238 0.0 2.0 0.00 0.00 0.00 49 1024.5
20140921194814 73 233 0.0 1.0 0.00 0.00 0.00 48 1024.6
20140921193313 72 223 1.0 2.0 0.00 0.00 0.00 49 1024.9
20140921191759 71 158 0.0 2.0 0.00 0.00 0.00 48 1025.6
20140921190312 71 127 0.0 1.0 0.00 0.00 0.00 48 1026.1
20140921184817 71 128 0.0 1.0 0.00 0.00 0.00 48 1026.3
20140921183304 70 128 0.0 1.0 0.00 0.00 0.00 48 1026.0
20140921181813 70 136 0.0 1.0 0.00 0.00 0.00 49 1026.4
20140921180303 69 167 0.0 1.0 0.00 0.00 0.00 49 1026.5
20140921174807 67 248 0.0 0.0 0.00 0.00 0.00 51 1026.9
20140921173300 68 248 0.0 1.0 0.00 0.00 0.00 49 1027.0
20140921171821 70 249 0.0 2.0 0.00 0.00 0.00 47 1027.8
20140921170306 71 129 0.0 1.0 0.00 0.00 0.00 47 1027.5
20140921164815 70 78 0.0 2.0 0.00 0.00 0.00 47 1027.3
20140921163304 69 292 0.0 0.0 0.00 0.00 0.00 49 1027.7
20140921161809 67 293 0.0 2.0 0.00 0.00 0.00 50 1028.3
20140921160303 65 293 0.0 1.0 0.00 0.00 0.00 54 1027.8
20140921154808 65 293 0.0 0.0 0.00 0.00 0.00 53 1028.2
20140921153302 64 304 0.0 4.0 0.00 0.00 0.00 56 1028.3
20140921151806 62 305 0.0 1.0 0.00 0.00 0.00 58 1028.4
20140921150315 62 305 0.0 1.0 0.00 0.00 0.00 57 1028.0
20140921144806 61 314 0.0 1.0 0.00 0.00 0.00 59 1028.4
20140921143316 59 315 0.0 0.0 0.00 0.00 0.00 63 1028.0
20140921141802 58 314 0.0 1.0 0.00 0.00 0.00 65 1028.3
20140921140316 57 314 0.0 0.0 0.00 0.00 0.00 68 1028.2
20140921134759 56 314 0.0 0.0 0.00 0.00 0.00 71 1028.1
20140921133310 55 314 0.0 0.0 0.00 0.00 0.00 71 1027.5
20140921131804 55 314 0.0 0.0 0.00 0.00 0.00 69 1027.4
20140921130308 56 314 0.0 0.0 0.00 0.00 0.00 68 1027.0
20140921124813 57 314 0.0 0.0 0.00 0.00 0.00 66 1027.3
20140921123302 57 314 0.0 0.0 0.00 0.00 0.00 66 1027.2
20140921121839 57 309 0.0 0.0 0.00 0.00 0.00 65 1027.1
20140921120310 57 309 0.0 0.0 0.00 0.00 0.00 65 1027.0
20140921114816 58 309 0.0 5.0 0.00 0.00 0.00 65 1026.6
20140921113307 58 304 0.0 5.0 0.00 0.00 0.00 65 1026.6
20140921111802 58 269 1.0 5.0 0.00 0.00 0.00 64 1026.2
20140921110302 58 267 0.0 2.0 0.00 0.00 0.00 65 1025.2
20140921104817 58 296 0.0 5.0 0.00 0.00 0.00 65 1026.7
20140921103316 59 300 0.0 1.0 0.00 0.00 0.00 66 1026.8
20140921101806 59 309 0.0 7.0 0.00 0.00 0.00 65 1026.9
20140921100314 60 241 0.0 3.0 0.00 0.00 0.00 64 1026.5
20140921094820 60 322 0.0 3.0 0.00 0.00 0.00 65 1026.8
20140921093312 61 288 0.0 2.0 0.00 0.00 0.00 67 1026.6
20140921091817 62 298 0.0 3.0 0.00 0.00 0.00 70 1026.0
20140921090306 62 142 0.0 1.0 0.00 0.00 0.00 69 1025.8
20140921084815 62 140 0.0 1.0 0.00 0.00 0.00 70 1025.8
20140921083304 62 140 0.0 0.0 0.00 0.00 0.00 71 1025.8
20140921081809 62 140 0.0 0.0 0.00 0.00 0.00 73 1025.7
20140921080303 62 140 0.0 0.0 0.00 0.00 0.00 73 1025.7
20140921074808 62 140 0.0 0.0 0.00 0.00 0.00 72 1026.0
20140921073302 62 140 0.0 0.0 0.00 0.00 0.00 71 1026.0
20140921071808 62 140 0.0 0.0 0.00 0.00 0.00 71 1026.0
20140921070317 61 140 0.0 0.0 0.00 0.00 0.00 71 1026.1
20140921064805 61 140 0.0 0.0 0.00 0.00 0.00 71 1025.6
20140921063314 61 140 0.0 0.0 0.00 0.00 0.00 71 1025.3
20140921061819 62 140 0.0 0.0 0.00 0.00 0.00 70 1025.1